Estación de Longaví Norte

Ultimos registro cada 15 minutos 38
Estación Fecha / Hora Temperatura Humedad Lluvia Velocidad Dirección Radiación Presion
38 Longaví Norte 10-05-2026 09:15 3,9 100 0 0 190 45,6 998
37 Longaví Norte 10-05-2026 09:00 1,9 100 0 0 190 85,6 997,8
36 Longaví Norte 10-05-2026 08:45 0,8 100 0 0 190 29,4 997,8
35 Longaví Norte 10-05-2026 08:30 -0,5 100 0 0 190 28,1 997,6
34 Longaví Norte 10-05-2026 08:15 -1,4 100 0 0 190 28,1 997,5
33 Longaví Norte 10-05-2026 08:00 -2 100 0 0 190 14,4 997,3
32 Longaví Norte 10-05-2026 07:45 -2,3 100 0 0 190 6,9 997,2
31 Longaví Norte 10-05-2026 07:30 -2,4 100 0 0 190 3,1 997,3
30 Longaví Norte 10-05-2026 07:15 -2,3 100 0 0 190 0,6 997,3
29 Longaví Norte 10-05-2026 07:00 -2,1 100 0 0 190 0,6 997,3
28 Longaví Norte 10-05-2026 06:45 -2 100 0 0 190 0,6 997,2
27 Longaví Norte 10-05-2026 06:30 -2,2 100 0 0 190 0,6 997,2
26 Longaví Norte 10-05-2026 06:15 -2,1 100 0 0 190 0,6 997,1
25 Longaví Norte 10-05-2026 06:00 -1,9 100 0 0 190 0,6 997,2
24 Longaví Norte 10-05-2026 05:45 -1,8 100 0 0 190 0,6 997,2
23 Longaví Norte 10-05-2026 05:30 -1,8 100 0 0 190 0,6 997,2
22 Longaví Norte 10-05-2026 05:15 -1,7 100 0 0 190 0,6 997,2
21 Longaví Norte 10-05-2026 05:00 -1,6 100 0 0 190 0,6 997
20 Longaví Norte 10-05-2026 04:45 -1,5 99,9 0 0 190 0,6 997
19 Longaví Norte 10-05-2026 04:30 -1,5 100 0 0 190 0,6 997,1
18 Longaví Norte 10-05-2026 04:15 -1,3 100 0 0 190 0,6 997,1
17 Longaví Norte 10-05-2026 04:00 -1,3 100 0 0 190 0,6 997,1
16 Longaví Norte 10-05-2026 03:45 -1,2 99,9 0 0 190 0,6 997,1
15 Longaví Norte 10-05-2026 03:30 -1 99,8 0 0 190 0,6 997,1
14 Longaví Norte 10-05-2026 03:15 -1 100 0 0 190 0,6 997,1
13 Longaví Norte 10-05-2026 03:00 -0,9 99,8 0 0 190 0,6 997,3
12 Longaví Norte 10-05-2026 02:45 -0,8 99,7 0 0 190 0,6 997,2
11 Longaví Norte 10-05-2026 02:30 -0,7 99,6 0 0 190 0,6 997,3
10 Longaví Norte 10-05-2026 02:15 -0,6 99,8 0 0 190 0,6 997,3
9 Longaví Norte 10-05-2026 02:00 -0,8 99,7 0 0 190 0,6 997,5
8 Longaví Norte 10-05-2026 01:45 -0,8 99,3 0 0 190 0,6 997,6
7 Longaví Norte 10-05-2026 01:30 -0,5 99,4 0 0 190 0,6 997,8
6 Longaví Norte 10-05-2026 01:15 -0,5 99,3 0 0 190 0,6 997,8
5 Longaví Norte 10-05-2026 01:00 -0,1 99,3 0 0 190 0,6 997,9
4 Longaví Norte 10-05-2026 00:45 0,2 99,2 0 0 190 0,6 998,1
3 Longaví Norte 10-05-2026 00:30 0,3 99,1 0 0 190 0,6 998,3
2 Longaví Norte 10-05-2026 00:15 0,6 99,3 0 0 190 0,6 998,3
1 Longaví Norte 10-05-2026 00:00 0,4 99,3 0 0 190 0,6 998,4